This is the latest recevied weather packets stored in our database for station/object KC8JWT. If no packets are shown the sender has not sent any weather packets the latest 10 day(s).
| Time | Temp. | Humidity | Pressure | Rain* | Wind** | Luminosity | Snow |
|---|---|---|---|---|---|---|---|
| 1778026436 | 21.11° C | 61% | 1008.2 hPa | 0 mm | - | 2 W/m² | - |
| 1778026133 | 21.11° C | 62% | 1008.4 hPa | 0 mm | - | 2 W/m² | - |
| 1778025831 | 21.11° C | 62% | 1008.1 hPa | 0 mm | - | 3 W/m² | - |
| 1778025528 | 21.11° C | 61% | 1008.4 hPa | 0 mm | - | 3 W/m² | - |
| 1778025225 | 21.11° C | 61% | 1008.4 hPa | 0 mm | - | 4 W/m² | - |
| 1778024922 | 21.67° C | 61% | 1008.2 hPa | 0 mm | - | 8 W/m² | - |
| 1778024620 | 21.67° C | 60% | 1008.2 hPa | 0 mm | - | 13 W/m² | - |
| 1778024316 | 21.67° C | 60% | 1008.1 hPa | 0 mm | - | 20 W/m² | - |
| 1778024015 | 21.67° C | 61% | 1008.3 hPa | 0 mm | - | 17 W/m² | - |
| 1778023712 | 21.67° C | 60% | 1008.6 hPa | 0 mm | - | 17 W/m² | - |
| 1778023409 | 21.67° C | 59% | 1008.3 hPa | 0 mm | - | 20 W/m² | - |
| 1778023106 | 21.67° C | 60% | 1008.1 hPa | 0 mm | - | 19 W/m² | - |
| 1778022804 | 22.22° C | 60% | 1008.5 hPa | 0 mm | - | 19 W/m² | - |
| 1778022502 | 22.22° C | 59% | 1008.5 hPa | 0 mm | - | 25 W/m² | - |
| 1778022198 | 22.22° C | 60% | 1008.4 hPa | 0 mm | - | 31 W/m² | - |
| 1778021895 | 22.22° C | 60% | 1008.3 hPa | 0 mm | - | 34 W/m² | - |
| 1778021592 | 22.22° C | 58% | 1008.3 hPa | 0 mm | - | 46 W/m² | - |
| 1778021287 | 22.78° C | 59% | 1008.3 hPa | 0 mm | - | 51 W/m² | - |
| 1778020985 | 22.78° C | 57% | 1008.3 hPa | 0 mm | - | 56 W/m² | - |
| 1778020682 | 22.78° C | 58% | 1008.5 hPa | 0 mm | - | 65 W/m² | - |
| 1778020379 | 22.78° C | 57% | 1008.2 hPa | 0 mm | - | 68 W/m² | - |
| 1778020075 | 22.78° C | 57% | 1008.3 hPa | 0 mm | - | 69 W/m² | - |
| 1778019771 | 22.78° C | 58% | 1008.3 hPa | 0 mm | - | 74 W/m² | - |
| 1778019468 | 22.78° C | 58% | 1008.4 hPa | 0 mm | - | 72 W/m² | - |
| 1778019165 | 22.78° C | 57% | 1008.3 hPa | 0 mm | - | 76 W/m² | - |
* Rain latest hour (hover to see other rain measurements)
** Current wind speed in m/s (hover to see current wind gust speed)